#timestamp,LO_Frequency,Hit,StdDev 
1544385615.1,286047000.1,N
1544385635.9,286046999.8,N
1544385655.7,286047000.3,N
1544385675.6,286046999.9,N
1544385695.4,286047001.0,N
1544385715.2,286047000.9,N
1544385735.1,286047000.9,N
1544385736.0,286047000.9,N
1544385755.8,286047001.1,N
1544385775.6,286047000.7,N
1544385795.5,286046998.1,N
1544385815.3,286046998.5,N
1544385835.2,286047001.2,N
1544385855.9,286047002.3,N
1544385875.7,286047002.2,N
1544385895.6,286047000.1,N
1544385915.4,286047000.1,N
1544385935.2,286047002.3,N
1544385955.1,286047000.9,N
1544385956.0,286047000.9,N
1544385975.8,286046999.9,N
1544385995.7,286047000.1,N
1544386015.5,286046999.8,N
1544386035.3,286047000.4,N
1544386055.2,286047002.3,N
1544386075.0,286047002.3,N
1544386075.9,286047002.3,N
1544386095.8,286046999.8,N
1544386115.6,286046999.7,N
1544386135.4,286046999.9,N
1544386155.3,286047002.7,N
1544386175.1,286047001.7,N
1544386176.0,286047001.7,N
1544386195.8,286047002.5,N
1544386215.7,286047000.0,N
1544386235.5,286047000.8,N
1544386255.3,286047000.0,N
1544386275.2,286047000.5,N
1544386295.0,286047000.9,N
1544386295.9,286047000.9,N
1544386315.7,286047000.5,N
1544386335.6,286047001.0,N
1544386355.4,286046998.6,N
1544386375.3,286046998.3,N
1544386395.1,286047001.1,N
1544386415.8,286047000.4,N
1544386435.7,286047001.0,N
1544386455.5,286047002.6,N
1544386475.4,286047002.8,N
1544386495.2,286047002.8,N
1544386515.0,286047002.4,N
1544386515.9,286047002.4,N
1544386535.8,286047002.7,N
1544386555.6,286047002.3,N
1544386575.5,286047002.6,N
1544386595.3,286047002.1,N
1544386615.1,286047002.6,N
1544386635.9,286047000.9,N
1544386655.7,286047001.0,N
1544386675.5,286047002.6,N
1544386695.4,286047002.2,N
1544386715.2,286047002.8,N
1544386735.1,286047000.4,N
1544386736.0,286047000.4,N
1544386755.8,286047000.3,N
1544386775.6,286047000.0,N
1544386795.5,286046999.7,N
1544386815.3,286047000.5,N
1544386835.2,286047000.9,N
1544386855.9,286047000.4,N
1544386875.7,286047000.8,N
1544386895.6,286047000.5,N
1544386915.4,286047001.0,N
1544386935.2,286047000.8,N
1544386955.1,286047000.9,N
1544386956.0,286047000.9,N
1544386975.8,286047001.1,N
1544386995.7,286047001.1,N
1544387015.5,286047000.2,N
1544387035.3,286047000.0,N
1544387055.2,286047000.8,N
1544387075.0,286047000.0,N
1544387075.9,286047000.0,N
1544387095.8,286047001.0,N
1544387115.6,286046999.8,N
1544387135.4,286047000.0,N
1544387155.3,286047002.6,Y
1544387175.1,286047000.0,P
1544387195.9,286047002.7,P
1544387215.7,286047002.8,N
1544387235.5,286047002.6,N
1544387255.7,286046999.8,N
1544387275.5,286047000.0,N
1544387295.4,286047000.2,N
1544387315.2,286047002.6,N
1544387335.0,286046999.7,N
1544387335.9,286046999.7,N
1544387355.8,286047001.8,N
1544387375.6,286047002.3,N
1544387395.4,286047002.3,N
1544387415.3,286047001.6,N
1544387435.1,286047001.9,N
1544387455.9,286047002.4,N
1544387475.7,286047002.8,N
1544387495.5,286047001.6,N
1544387515.4,286047002.4,N
1544387535.2,286047002.7,N
1544387555.0,286047002.7,N
1544387556.0,286047002.7,N
1544387575.8,286047002.1,N
1544387595.6,286047000.2,N
1544387615.5,286047000.0,N
1544387635.3,286047001.1,N
1544387655.1,286046998.1,N
1544387675.9,286047001.0,N
1544387695.7,286047000.0,N
1544387715.6,286047001.7,N
1544387735.4,286047013.9,Y
1544387755.2,286047017.9,P
1544387775.1,286047011.9,N
1544387776.0,286047017.7,N
1544387795.8,286047015.4,N
1544387815.7,286047009.8,N
1544387835.5,286047007.1,N
1544387855.3,286047006.1,N
1544387875.2,286047007.3,N
1544387895.0,286047007.2,N
1544387895.9,286047007.2,N
1544387915.8,286047005.1,N
1544387935.6,286047003.1,N
1544387955.4,286047003.9,N
1544387975.3,286047002.1,N
1544387995.1,286047000.2,N
1544388015.8,286047004.4,N
1544388035.7,286047016.8,Y
1544388055.5,286047013.8,P
1544388075.4,286047011.8,P
1544388095.2,286047006.4,N
1544388115.0,286047002.3,N
1544388115.9,286047002.3,N
1544388135.8,286046999.5,N
1544388155.6,286046996.9,N
1544388175.5,286046999.5,N
1544388195.3,286046999.3,N
1544388215.1,286046999.6,N
1544388235.9,286046997.4,N
1544388255.7,286046993.4,N
1544388275.5,286046994.0,N
1544388295.4,286046994.3,N
1544388315.2,286046992.5,N
1544388335.1,286046992.4,N
1544388336.0,286046992.4,N
1544388355.8,286046991.7,N
1544388375.6,286046994.5,N
1544388395.4,286046994.7,N
1544388415.2,286046991.8,N
1544388435.0,286046991.7,N
1544388435.9,286046991.7,N
1544388455.8,286046990.6,N
1544388475.6,286046992.6,N
1544388495.4,286046990.1,N
1544388515.3,286046991.5,N
1544388535.1,286046988.8,N
1544388555.9,286046987.6,N
1544388575.7,286046987.4,N
1544388595.5,286046987.2,N
1544388615.4,286046989.5,N
1544388635.2,286046989.3,N
1544388655.0,286046989.6,N
1544388655.9,286046989.6,N
1544388675.8,286046987.3,Y
1544388725.7,286046994.3,E
1544388735.6,286046998.0,N
1544388755.4,286046999.8,P
1544388775.3,286047002.8,P
1544388795.1,286047002.1,N
1544388796.0,286047002.1,N
1544388815.8,286047002.3,N
1544388835.7,286047000.0,N
1544388855.5,286046998.5,N
1544388875.3,286046998.3,N
1544388895.2,286046999.1,N
1544388915.0,286046998.1,N
1544388915.9,286046998.1,N
1544388935.8,286047002.7,N
1544388955.2,286047004.0,N
1544388975.0,286047004.0,N
1544388976.0,286047004.0,N
1544388995.8,286047003.5,N
1544389015.6,286047001.9,N
1544389035.5,286047000.2,N
1544389055.3,286047002.7,N
1544389075.1,286047001.8,N
1544389095.9,286047003.7,N
1544389115.7,286047001.3,N
1544389135.6,286047002.6,N
1544389155.4,286047002.3,N
1544389175.2,286047000.6,N
1544389195.1,286047000.5,N
1544389226.0,286047002.8,E
